Bel Air, Maryland - USA


Today's Data File


9/4/26
Time         Wind Dir   Wind Spd  Wind Gust     Hum In   Humidity    Temp In       Temp  Raw Barom Wind Chill  Press Alt Cloud Base   Dens Alt Temp Out R  DailyRain   24HrRain   RainRate
                    �        mph        mph          %          %         �F         �F         in         �F         ft         ft         ft      �F/hr         in         in      in/hr
12:00am           350          1          2         44         99       72.6       76.1      29.33       76.1        547         74       1792      -0.58       0.60       0.60      0.040
12:01am           350          1          1         44         99       72.6       76.1      29.33       76.1        547         74       1792      -0.56       0.00       0.60      0.040
12:02am           350          2          2         44         99       72.6       76.1      29.34       76.1        545         74       1790      -0.56       0.00       0.60      0.040
12:03am           350          1          2         44         99       72.6       76.1      29.34       76.1        543         74       1788      -0.55       0.00       0.60      0.000
12:04am           350          1          2         44         99       72.6       76.0      29.34       76.0        542         74       1780      -0.64       0.00       0.60      0.000
12:05am           350          0          3         44         99       72.6       76.1      29.34       76.1        543         74       1788      -0.53       0.00       0.60      0.000
12:06am           350          1          2         44         99       72.6       76.0      29.34       76.0        542         74       1780      -0.62       0.00       0.60      0.000
12:07am           330          1          3         44         99       72.6       76.0      29.34       76.0        541         74       1779      -0.61       0.00       0.60      0.000
12:08am           331          2          3         44         99       72.6       76.0      29.34       76.0        540         74       1778      -0.60       0.00       0.60      0.000
12:09am           285          3          3         44         99       72.4       75.9      29.34       75.9        540         74       1772      -0.69       0.00       0.60      0.000
12:10am           314          2          5         44         99       72.4       75.9      29.34       75.9        540         74       1772      -0.68       0.00       0.60      0.000
12:11am           322          3          3         44         99       72.4       75.9      29.34       75.9        540         74       1772      -0.67       0.00       0.60      0.000
12:12am           353          2          5         44         99       72.4       75.9      29.34       75.9        540         74       1772      -0.66       0.00       0.60      0.000
12:13am           353          2          5         44         99       72.4       75.8      29.34       75.8        540         74       1766      -0.75       0.00       0.60      0.000
12:14am           350          2          5         44         99       72.4       75.8      29.34       75.8        539         74       1764      -0.73       0.00       0.60      0.000
12:15am           314          4          5         44         99       72.4       75.8      29.34       75.8        539         74       1764      -0.72       0.00       0.60      0.000
12:16am           293          1          4         44         99       72.6       75.8      29.34       75.8        539         74       1764      -0.71       0.00       0.60      0.000
12:17am            66          1          4         44         99       72.6       75.8      29.34       75.8        539         74       1764      -0.70       0.00       0.60      0.000
12:18am           320          2          4         44         99       72.6       75.8      29.34       75.8        538         74       1763      -0.69       0.00       0.60      0.000
12:19am           337          2          4         44         99       72.6       75.8      29.34       75.8        538         74       1763      -0.68       0.00       0.60      0.000
12:20am           234          3          4         44         99       72.6       75.8      29.34       75.8        539         74       1764      -0.66       0.00       0.60      0.000
12:21am            85          2          7         44         99       72.6       75.7      29.34       75.7        539         74       1758      -0.75       0.00       0.60      0.000
12:22am            95          1          7         44         99       72.6       75.7      29.34       75.7        539         74       1758      -0.74       0.00       0.60      0.000
12:23am           234          1          7         44         99       72.6       75.7      29.34       75.7        539         74       1758      -0.73       0.00       0.60      0.000
12:24am           172          2          7         44         99       72.6       75.6      29.34       75.6        541         74       1754      -0.82       0.00       0.60      0.000
12:25am            25          2          7         44         99       72.6       75.6      29.34       75.6        542         74       1755      -0.80       0.00       0.60      0.000
12:26am            26          1          2         44         98       72.6       75.5      29.34       75.5        543        150       1750      -0.89       0.00       0.60      0.000
12:27am            36          1          2         44         99       72.6       75.5      29.34       75.5        542         74       1749      -0.88       0.00       0.60      0.000
12:28am           264          0          5         44         98       72.6       75.5      29.34       75.5        543        150       1750      -0.86       0.00       0.60      0.000
12:29am           264          0          5         44         98       72.6       75.5      29.34       75.5        545        150       1752      -0.85       0.00       0.60      0.000
12:30am           264          0          5         44         98       72.6       75.4      29.33       75.4        547        150       1748      -0.93       0.00       0.60      0.000
12:31am           264          0          0         44         98       72.6       75.4      29.33       75.4        548        150       1749      -0.92       0.00       0.60      0.000
12:32am           264          0          0         44         98       72.6       75.4      29.33       75.4        548        150       1749      -0.90       0.00       0.60      0.000
12:33am           264          0          0         44         98       72.6       75.4      29.33       75.4        549        150       1752      -0.89       0.00       0.60      0.000
12:34am           265          0          0         44         98       72.6       75.4      29.33       75.4        552        150       1755      -0.87       0.00       0.60      0.000
12:35am           317          2          5         44         98       72.6       75.3      29.33       75.3        552        150       1749      -0.96       0.00       0.60      0.000
12:36am           317          1          3         44         98       72.6       75.2      29.33       75.2        553        150       1744      -1.04       0.00       0.60      0.000
12:37am           317          2          3         44         98       72.6       75.2      29.33       75.2        553        150       1744      -1.02       0.00       0.60      0.000
12:38am           320          1          3         44         98       72.6       75.1      29.33       75.1        554        150       1738      -1.10       0.00       0.60      0.000
12:39am           320          0          3         44         98       72.6       75.1      29.33       75.1        554        150       1738      -1.09       0.00       0.60      0.000
12:40am           320          0          3         44         98       72.6       75.1      29.33       75.1        554        150       1738      -1.07       0.00       0.60      0.000
12:41am           320          0          1         44         98       72.6       75.1      29.32       75.1        555        150       1740      -1.05       0.00       0.60      0.000
12:42am           320          0          2         44         98       72.6       75.1      29.32       75.1        555        150       1740      -1.03       0.00       0.60      0.000
12:43am           320          0          2         44         98       72.6       75.1      29.32       75.1        555        150       1740      -1.02       0.00       0.60      0.000
12:44am           320          1          2         44         98       72.6       75.0      29.32       75.0        555        150       1733      -1.10       0.00       0.60      0.000
12:45am           320          1          2         44         98       72.6       75.0      29.32       75.0        555        150       1733      -1.08       0.00       0.60      0.000
12:46am           320          0          1         44         98       72.6       74.9      29.32       74.9        555        150       1727      -1.16       0.00       0.60      0.000
12:47am           320          1          2         44         98       72.4       74.9      29.32       74.9        555        150       1727      -1.14       0.00       0.60      0.000
12:48am           320          1          2         44         98       72.4       74.9      29.32       74.9        556        150       1728      -1.12       0.00       0.60      0.000
12:49am           320          1          2         44         98       72.4       74.9      29.32       74.9        557        150       1729      -1.10       0.00       0.60      0.000
12:50am           320          1          2         44         98       72.4       74.8      29.32       74.8        557        150       1723      -1.18       0.00       0.60      0.000
12:51am           320          1          2         44         98       72.4       74.8      29.32       74.8        556        150       1722      -1.16       0.00       0.60      0.000
12:52am           320          0          2         44         98       72.4       74.7      29.32       74.7        556        149       1715      -1.25       0.00       0.60      0.000
12:53am           320          0          2         44         98       72.4       74.7      29.32       74.7        556        149       1715      -1.22       0.00       0.60      0.000
12:54am           331          1          3         44         98       72.4       74.7      29.32       74.7        557        149       1717      -1.20       0.00       0.60      0.000
12:55am           331          0          3         44         98       72.4       74.6      29.32       74.6        557        149       1710      -1.28       0.00       0.60      0.000
12:56am            87          1          2         44         98       72.4       74.6      29.32       74.6        560        149       1714      -1.26       0.00       0.60      0.000
12:57am            87          1          2         44         98       72.4       74.5      29.32       74.5        560        149       1707      -1.34       0.00       0.60      0.000
12:58am            87          1          2         44         98       72.4       74.5      29.32       74.5        559        149       1706      -1.32       0.00       0.60      0.000
12:59am            87          1          2         44         98       72.4       74.5      29.32       74.5        560        149       1708      -1.29       0.00       0.60      0.000
1:00am             87          0          2         44         98       72.4       74.4      29.32       74.4        561        149       1703      -1.37       0.00       0.60      0.000
1:01am             87          1          1         44         98       72.6       74.4      29.32       74.4        563        149       1706      -1.35       0.00       0.60      0.000
1:02am             87          1          2         44         98       72.6       74.4      29.32       74.4        561        149       1703      -1.33       0.00       0.60      0.000
1:03am             87          2          2         44         98       72.6       74.3      29.32       74.3        563        149       1699      -1.40       0.00       0.60      0.000
1:04am             87          2          2         44         98       72.6       74.3      29.32       74.3        564        149       1700      -1.38       0.00       0.60      0.000
1:05am             87          1          2         44         98       72.6       74.2      29.32       74.2        561        149       1691      -1.46       0.00       0.60      0.000
1:06am             87          0          1         44         98       72.6       74.2      29.32       74.2        560        149       1689      -1.43       0.00       0.60      0.000
1:07am             87          0          1         44         98       72.6       74.1      29.32       74.1        560        149       1683      -1.51       0.00       0.60      0.000
1:08am             87          0          1         44         98       72.6       74.1      29.32       74.1        560        149       1683      -1.48       0.00       0.60      0.000
1:09am            218          1          3         44         98       72.6       74.0      29.32       74.0        562        149       1679      -1.56       0.00       0.60      0.000
1:10am            218          0          3         44         98       72.6       74.0      29.32       74.0        561        149       1678      -1.53       0.00       0.60      0.000
1:11am            255          1          2         44         98       72.6       73.9      29.32       73.9        559        149       1668      -1.61       0.00       0.60      0.000
1:12am            216          2          3         45         97       72.6       73.8      29.32       73.8        559        225       1662      -1.68       0.00       0.60      0.000
1:13am            216          1          3         44         98       72.6       73.7      29.32       73.7        560        149       1657      -1.75       0.00       0.60      0.000
1:14am            216          2          3         44         98       72.6       73.7      29.32       73.7        560        149       1657      -1.72       0.00       0.60      0.000
1:15am            216          0          3         44         98       72.6       73.7      29.32       73.7        560        149       1658      -1.69       0.00       0.60      0.000
1:16am            216          0          1         44         98       72.8       73.8      29.32       73.8        561        149       1665      -1.57       0.00       0.60      0.000
1:17am            216          1          1         44         98       72.8       73.7      29.32       73.7        562        149       1660      -1.64       0.00       0.60      0.000
1:18am            216          0          1         44         98       72.8       73.7      29.32       73.7        562        149       1660      -1.61       0.00       0.60      0.000
1:19am            216          1          2         44         97       72.8       73.7      29.32       73.7        563        225       1661      -1.59       0.00       0.60      0.000
1:20am            216          0          2         44         97       72.8       73.7      29.32       73.7        562        225       1660      -1.56       0.00       0.60      0.000
1:21am            216          0          0         44         97       72.8       73.6      29.32       73.6        560        225       1652      -1.63       0.00       0.60      0.000
1:22am            216          0          0         44         97       72.6       73.6      29.32       73.6        560        225       1650      -1.60       0.00       0.60      0.000
1:23am            216          0          0         44         97       72.6       73.5      29.32       73.5        558        225       1642      -1.68       0.00       0.60      0.000
1:24am            216          0          0         44         97       72.6       73.5      29.32       73.5        556        225       1640      -1.65       0.00       0.60      0.000
1:25am            216          0          0         44         97       72.6       73.5      29.32       73.5        555        225       1638      -1.62       0.00       0.60      0.000
1:26am            216          0          0         44         98       72.6       73.5      29.32       73.5        555        149       1638      -1.60       0.00       0.60      0.000
1:27am            216          0          0         44         98       72.6       73.5      29.33       73.5        554        149       1637      -1.57       0.00       0.60      0.000
1:28am            216          0          0         44         98       72.6       73.6      29.33       73.6        554        149       1644      -1.45       0.00       0.60      0.000
1:29am            216          0          0         44         97       72.6       73.5      29.33       73.5        554        225       1637      -1.52       0.00       0.60      0.000
1:30am            216          0          0         44         97       72.6       73.5      29.33       73.5        554        225       1637      -1.50       0.00       0.60      0.000
1:31am            216          0          0         44         97       72.6       73.5      29.33       73.5        554        225       1637      -1.47       0.00       0.60      0.000
1:32am            216          0          0         44         97       72.6       73.4      29.33       73.4        554        225       1631      -1.55       0.00       0.60      0.000
1:33am            216          0          0         44         97       72.6       73.4      29.33       73.4        553        225       1630      -1.52       0.00       0.60      0.000
1:34am            216          0          0         44         97       72.6       73.3      29.33       73.3        553        225       1623      -1.59       0.00       0.60      0.000
1:35am            216          0          0         44         97       72.6       73.3      29.33       73.3        553        225       1623      -1.57       0.00       0.60      0.000
1:36am            216          0          0         44         97       72.4       73.3      29.33       73.3        554        225       1625      -1.54       0.00       0.60      0.000
1:37am            216          0          0         44         97       72.4       73.2      29.33       73.2        554        225       1618      -1.61       0.00       0.60      0.000
1:38am            216          0          0         44         98       72.4       73.2      29.33       73.2        554        149       1618      -1.59       0.00       0.60      0.000
1:39am            216          0          0         44         97       72.4       73.2      29.33       73.2        554        225       1618      -1.56       0.00       0.60      0.000
1:40am            216          0          0         44         97       72.4       73.1      29.33       73.1        554        224       1612      -1.63       0.00       0.60      0.000
1:41am            216          0          0         44         97       72.6       73.0      29.33       73.0        554        224       1606      -1.71       0.00       0.60      0.000
1:42am            216          0          0         44         97       72.6       73.0      29.33       73.0        554        224       1606      -1.68       0.00       0.60      0.000
1:43am            216          0          0         44         97       72.6       73.0      29.33       73.0        553        224       1604      -1.65       0.00       0.60      0.000
1:44am            216          0          0         44         97       72.6       73.0      29.33       73.0        551        224       1602      -1.62       0.00       0.60      0.000
1:45am            216          0          0         44         97       72.6       73.0      29.33       73.0        551        224       1602      -1.59       0.00       0.60      0.000
1:46am            216          0          0         44         97       72.6       72.9      29.33       72.9        551        224       1596      -1.67       0.00       0.60      0.000
1:47am            216          0          0         44         97       72.6       72.9      29.33       72.9        553        224       1598      -1.64       0.00       0.60      0.000
1:48am            216          0          0         44         97       72.6       72.8      29.33       72.8        554        224       1593      -1.71       0.00       0.60      0.000
1:49am            216          0          0         44         97       72.6       72.8      29.32       72.8        557        224       1596      -1.68       0.00       0.60      0.000
1:50am            216          0          0         44         97       72.6       72.8      29.32       72.8        558        224       1597      -1.65       0.00       0.60      0.000
1:51am            216          0          0         44         97       72.6       72.8      29.32       72.8        558        224       1597      -1.63       0.00       0.60      0.000
1:52am            216          0          0         44         97       72.6       72.7      29.32       72.7        556        224       1589      -1.70       0.00       0.60      0.000
1:53am            216          0          0         45         97       72.6       72.8      29.33       72.8        554        224       1593      -1.57       0.00       0.60      0.000
1:54am            216          0          0         44         97       72.6       72.7      29.33       72.7        553        224       1585      -1.64       0.00       0.60      0.000
1:55am            216          0          0         44         97       72.6       72.6      29.33       72.6        551        224       1577      -1.72       0.00       0.60      0.000
1:56am            216          0          0         44         97       72.6       72.6      29.33       72.6        550        224       1576      -1.69       0.00       0.60      0.000
1:57am            216          0          0         44         97       72.6       72.6      29.33       72.6        550        224       1576      -1.66       0.00       0.60      0.000
1:58am            216          0          0         44         97       72.6       72.6      29.33       72.6        549        224       1575      -1.63       0.00       0.60      0.000
1:59am            216          0          0         44         97       72.6       72.6      29.33       72.6        551        224       1577      -1.61       0.00       0.60      0.000
2:00am            216          0          0         44         97       72.8       72.5      29.33       72.5        553        224       1573      -1.68       0.00       0.60      0.000
2:01am            216          0          0         44         97       72.8       72.5      29.33       72.5        554        224       1574      -1.65       0.00       0.60      0.000
2:02am            216          0          0         44         97       72.8       72.5      29.33       72.5        554        224       1574      -1.62       0.00       0.60      0.000
2:03am            216          0          0         44         97       72.6       72.4      29.33       72.4        554        224       1567      -1.70       0.00       0.60      0.000
2:04am            216          0          0         44         97       72.6       72.4      29.32       72.4        555        224       1569      -1.67       0.00       0.60      0.000
2:05am            216          0          0         44         97       72.6       72.4      29.33       72.4        553        224       1566      -1.64       0.00       0.60      0.000
2:06am            216          0          0         44         97       72.6       72.3      29.33       72.3        553        224       1560      -1.71       0.00       0.60      0.000
2:07am            216          0          0         44         97       72.6       72.4      29.33       72.4        553        224       1566      -1.59       0.00       0.60      0.000
2:08am            216          0          0         44         97       72.6       72.4      29.33       72.4        553        224       1566      -1.56       0.00       0.60      0.000
2:09am            216          0          0         44         97       72.6       72.4      29.33       72.4        554        224       1567      -1.53       0.00       0.60      0.000
2:10am            216          0          0         44         97       72.6       72.3      29.32       72.3        555        224       1562      -1.61       0.00       0.60      0.000
2:11am            216          0          0         44         97       72.6       72.3      29.32       72.3        556        224       1563      -1.58       0.00       0.60      0.000
2:12am            216          0          0         44         97       72.6       72.3      29.32       72.3        555        224       1562      -1.55       0.00       0.60      0.000
2:13am            216          0          0         44         97       72.6       72.3      29.32       72.3        556        224       1563      -1.53       0.00       0.60      0.000
2:14am            216          0          0         44         97       72.6       72.2      29.32       72.2        555        224       1556      -1.60       0.00       0.60      0.000
2:15am            216          0          0         44         97       72.4       72.2      29.32       72.2        555        224       1556      -1.58       0.00       0.60      0.000
2:16am            216          0          0         44         97       72.4       72.2      29.32       72.2        555        224       1556      -1.55       0.00       0.60      0.000
2:17am            216          0          0         44         97       72.4       72.2      29.32       72.2        556        224       1557      -1.52       0.00       0.60      0.000
2:18am            216          0          0         44         97       72.4       72.2      29.32       72.2        555        224       1556      -1.50       0.00       0.60      0.000
2:19am            216          0          0         44         97       72.4       72.1      29.32       72.1        555        224       1550      -1.57       0.00       0.60      0.000
2:20am            216          0          0         44         97       72.4       72.1      29.32       72.1        555        224       1550      -1.54       0.00       0.60      0.000
2:21am            216          0          0         44         97       72.4       72.1      29.32       72.1        555        224       1550      -1.52       0.00       0.60      0.000
2:22am            216          0          0         44         97       72.4       72.0      29.32       72.0        556        223       1544      -1.59       0.00       0.60      0.000
2:23am            216          0          0         44         97       72.4       72.0      29.32       72.0        556        223       1544      -1.57       0.00       0.60      0.000
2:24am            216          0          0         44         97       72.4       72.1      29.32       72.1        556        224       1551      -1.44       0.00       0.60      0.000
2:25am            216          0          0         44         98       72.4       72.0      29.32       72.0        556        148       1544      -1.52       0.00       0.60      0.000
2:26am            216          0          0         44         98       72.4       72.0      29.32       72.0        555        148       1543      -1.49       0.00       0.60      0.000
2:27am            216          0          0         44         98       72.4       72.0      29.32       72.0        555        148       1543      -1.47       0.00       0.60      0.000
2:28am            216          0          0         44         98       72.4       71.9      29.32       71.9        555        148       1537      -1.54       0.00       0.60      0.000
2:29am            216          0          0         44         98       72.4       71.9      29.32       71.9        555        148       1537      -1.52       0.00       0.60      0.000
2:30am            216          0          0         44         98       72.4       71.9      29.32       71.9        555        148       1537      -1.49       0.00       0.60      0.000
2:31am            216          0          0         44         98       72.6       71.9      29.32       71.9        555        148       1537      -1.47       0.00       0.60      0.000
2:32am            216          0          0         44         98       72.6       71.9      29.32       71.9        556        148       1538      -1.44       0.00       0.60      0.000
2:33am            216          0          0         44         98       72.6       71.9      29.32       71.9        556        148       1538      -1.42       0.00       0.60      0.000
2:34am            216          0          0         44         98       72.6       71.8      29.32       71.8        555        148       1530      -1.50       0.00       0.60      0.000
2:35am            216          0          0         44         98       72.6       71.9      29.33       71.9        554        148       1536      -1.37       0.00       0.60      0.000
2:36am            216          0          0         44         98       72.6       71.9      29.33       71.9        553        148       1535      -1.35       0.00       0.60      0.000
2:37am            216          0          0         44         98       72.6       71.8      29.33       71.8        553        148       1528      -1.43       0.00       0.60      0.000
2:38am            216          0          0         44         98       72.6       71.8      29.33       71.8        553        148       1528      -1.40       0.00       0.60      0.000
2:39am            216          0          0         44         98       72.6       71.8      29.33       71.8        553        148       1528      -1.38       0.00       0.60      0.000
2:40am            216          0          0         44         98       72.6       71.8      29.33       71.8        553        148       1528      -1.36       0.00       0.60      0.000
2:41am            216          0          0         44         98       72.6       71.8      29.33       71.8        552        148       1527      -1.33       0.00       0.60      0.000
2:42am            216          0          0         44         98       72.6       71.7      29.33       71.7        553        148       1522      -1.41       0.00       0.60      0.000
2:43am            216          0          0         44         98       72.6       71.8      29.33       71.8        553        148       1528      -1.29       0.00       0.60      0.000
2:44am            216          0          0         44         98       72.6       71.8      29.33       71.8        553        148       1528      -1.27       0.00       0.60      0.000
2:45am            216          0          0         44         98       72.6       71.7      29.33       71.7        553        148       1522      -1.35       0.00       0.60      0.000
2:46am            216          0          0         44         98       72.6       71.7      29.33       71.7        553        148       1522      -1.33       0.00       0.60      0.000
2:47am            216          0          0         44         98       72.8       71.7      29.33       71.7        553        148       1522      -1.30       0.00       0.60      0.000
2:48am            216          0          0         44         98       72.8       71.7      29.33       71.7        553        148       1522      -1.28       0.00       0.60      0.000
2:49am            216          0          0         44         98       72.8       71.7      29.33       71.7        553        148       1522      -1.26       0.00       0.60      0.000
2:50am            216          0          0         44         98       72.8       71.6      29.33       71.6        553        148       1516      -1.34       0.00       0.60      0.000
2:51am            216          0          0         44         98       72.8       71.6      29.33       71.6        553        148       1516      -1.32       0.00       0.60      0.000
2:52am            216          0          0         44         98       72.8       71.6      29.33       71.6        553        148       1516      -1.29       0.00       0.60      0.000
2:53am            216          0          0         44         98       72.8       71.6      29.33       71.6        552        148       1514      -1.27       0.00       0.60      0.000
2:54am            218          1          2         44         98       72.8       71.6      29.33       71.6        552        148       1514      -1.25       0.00       0.60      0.000
2:55am            218          0          2         44         98       72.8       71.5      29.33       71.5        553        148       1509      -1.33       0.00       0.60      0.000
2:56am            218          0          1         43         98       72.8       71.5      29.33       71.5        553        148       1509      -1.31       0.00       0.60      0.000
2:57am            218          1          1         44         98       72.8       71.5      29.33       71.5        553        148       1509      -1.29       0.00       0.60      0.000
2:58am            218          1          2         44         98       72.8       71.5      29.33       71.5        553        148       1509      -1.27       0.00       0.60      0.000
2:59am            218          1          2         44         98       72.8       71.5      29.33       71.5        552        148       1508      -1.25       0.00       0.60      0.000
3:00am            218          0          2         44         98       72.8       71.5      29.33       71.5        552        148       1508      -1.23       0.00       0.60      0.000
3:01am            218          0          0         44         98       72.8       71.5      29.33       71.5        552        148       1508      -1.20       0.00       0.60      0.000
3:02am            218          0          0         45         98       72.6       71.5      29.33       71.5        553        148       1509      -1.18       0.00       0.60      0.000
3:03am            218          0          0         44         98       72.6       71.5      29.33       71.5        552        148       1508      -1.16       0.00       0.60      0.000
3:04am            218          0          0         44         98       72.6       71.4      29.33       71.4        552        148       1502      -1.24       0.00       0.60      0.000
3:05am            218          0          0         44         98       72.6       71.4      29.33       71.4        551        148       1501      -1.22       0.00       0.60      0.000
3:06am            218          0          0         44         98       72.6       71.3      29.33       71.3        551        147       1494      -1.30       0.00       0.60      0.000
3:07am            218          0          0         44         98       72.6       71.3      29.33       71.3        548        147       1490      -1.28       0.00       0.60      0.000
3:08am            218          0          0         44         98       72.6       71.2      29.33       71.2        548        147       1483      -1.36       0.00       0.60      0.000
3:09am            218          0          0         44         98       72.6       71.2      29.33       71.2        548        147       1484      -1.34       0.00       0.60      0.000
3:10am            218          0          0         44         98       72.6       71.2      29.33       71.2        546        147       1481      -1.31       0.00       0.60      0.000
3:11am            218          0          0         44         98       72.6       71.2      29.33       71.2        546        147       1481      -1.29       0.00       0.60      0.000
3:12am            218          0          0         44         98       72.6       71.2      29.34       71.2        543        147       1478      -1.27       0.00       0.60      0.000
3:13am            218          0          0         44         98       72.6       71.2      29.34       71.2        542        147       1476      -1.25       0.00       0.60      0.000
3:14am            218          0          0         44         98       72.6       71.2      29.34       71.2        540        147       1474      -1.23       0.00       0.60      0.000
3:15am            218          0          0         44         98       72.6       71.1      29.34       71.1        540        147       1468      -1.31       0.00       0.60      0.000
3:16am            218          0          0         44         98       72.6       71.1      29.34       71.1        538        147       1466      -1.28       0.00       0.60      0.000
3:17am            218          0          0         44         98       72.6       71.1      29.34       71.1        538        147       1466      -1.26       0.00       0.60      0.000
3:18am            218          0          0         44         98       72.6       71.2      29.34       71.2        538        147       1472      -1.14       0.00       0.60      0.000
3:19am            218          0          0         44         98       72.6       71.1      29.34       71.1        538        147       1466      -1.22       0.00       0.60      0.000
3:20am            218          0          0         44         98       72.6       71.1      29.34       71.1        537        147       1464      -1.20       0.00       0.60      0.000
3:21am            218          0          0         44         98       72.6       71.0      29.34       71.0        537        147       1458      -1.28       0.00       0.60      0.000
3:22am            218          0          0         44         98       72.6       71.1      29.34       71.1        537        147       1464      -1.16       0.00       0.60      0.000
3:23am            218          0          0         44         98       72.6       71.1      29.34       71.1        537        147       1464      -1.14       0.00       0.60      0.000
3:24am            218          0          0         44         98       72.6       71.1      29.34       71.1        537        147       1464      -1.12       0.00       0.60      0.000
3:25am            218          0          0         44         98       72.6       71.1      29.34       71.1        537        147       1464      -1.11       0.00       0.60      0.000
3:26am            218          0          0         44         98       72.6       71.0      29.34       71.0        536        147       1457      -1.19       0.00       0.60      0.000
3:27am            218          0          0         44         98       72.6       71.1      29.34       71.1        536        147       1463      -1.07       0.00       0.60      0.000
3:28am            218          0          0         43         98       72.8       71.1      29.34       71.1        536        147       1463      -1.05       0.00       0.60      0.000
3:29am            214          0          0         44         98       72.8       71.1      29.35       71.1        536        147       1462      -1.03       0.00       0.60      0.000
3:30am            214          0          0         44         98       72.8       71.1      29.35       71.1        536        147       1462      -1.02       0.00       0.60      0.000
3:31am            214          0          0         44         98       72.8       71.2      29.35       71.2        535        147       1467      -0.90       0.00       0.60      0.000
3:32am            183          2          4         44         98       72.8       71.2      29.35       71.2        535        147       1467      -0.89       0.00       0.60      0.000
3:33am            183          0          4         44         98       72.8       71.2      29.35       71.2        534        147       1466      -0.87       0.00       0.60      0.000
3:34am            183          0          4         44         98       72.8       71.2      29.35       71.2        533        147       1465      -0.86       0.00       0.60      0.000
3:35am            183          0          4         44         98       72.8       71.2      29.35       71.2        532        147       1464      -0.84       0.00       0.60      0.000
3:36am            183          0          0         44         98       72.8       71.3      29.35       71.3        530        147       1468      -0.73       0.00       0.60      0.000
3:37am            183          0          1         44         98       72.8       71.3      29.35       71.3        527        147       1465      -0.72       0.00       0.60      0.000
3:38am            183          0          1         44         98       72.8       71.3      29.36       71.3        525        147       1462      -0.71       0.00       0.60      0.000
3:39am            183          0          1         44         98       72.8       71.3      29.36       71.3        525        147       1462      -0.69       0.00       0.60      0.000
3:40am            183          0          1         44         98       72.8       71.3      29.36       71.3        526        147       1464      -0.68       0.00       0.60      0.000
3:41am            183          0          0         44         98       72.8       71.3      29.36       71.3        526        147       1464      -0.67       0.00       0.60      0.000
3:42am            183          1          1         44         98       72.8       71.3      29.36       71.3        526        147       1464      -0.66       0.00       0.60      0.000
3:43am            183          1          1         44         98       73.0       71.3      29.35       71.3        529        147       1467      -0.65       0.00       0.60      0.000
3:44am            183          1          2         44         98       73.0       71.3      29.35       71.3        530        147       1468      -0.64       0.00       0.60      0.000
3:45am            183          1          2         44         98       73.0       71.3      29.35       71.3        530        147       1468      -0.63       0.00       0.60      0.000
3:46am            183          0          2         44         98       73.0       71.3      29.35       71.3        530        147       1468      -0.62       0.00       0.60      0.000
3:47am            183          0          2         44         98       73.0       71.3      29.35       71.3        531        147       1469      -0.61       0.00       0.60      0.000
3:48am            183          0          2         44         98       72.8       71.3      29.35       71.3        530        147       1468      -0.60       0.00       0.60      0.000
3:49am            183          0          2         44         97       72.8       71.3      29.35       71.3        528        223       1466      -0.59       0.00       0.60      0.000
3:50am            183          0          2         44         97       72.8       71.4      29.36       71.4        526        223       1470      -0.48       0.00       0.60      0.000
3:51am            183          0          0         44         97       72.8       71.4      29.36       71.4        526        223       1470      -0.47       0.00       0.60      0.000
3:52am            183          0          0         44         97       72.8       71.4      29.36       71.4        525        223       1469      -0.46       0.00       0.60      0.000
3:53am            183          1          1         43         97       72.8       71.3      29.35       71.3        527        223       1465      -0.55       0.00       0.60      0.000
3:54am            183          1          1         44         97       72.8       71.4      29.35       71.4        527        223       1471      -0.45       0.00       0.60      0.000
3:55am            183          1          1         43         97       72.8       71.3      29.35       71.3        529        223       1467      -0.54       0.00       0.60      0.000
3:56am            183          0          1         43         97       72.8       71.4      29.35       71.4        530        223       1474      -0.43       0.00       0.60      0.000
3:57am            183          1          1         44         97       72.8       71.4      29.35       71.4        531        223       1476      -0.42       0.00       0.60      0.000
3:58am            183          0          1         44         97       72.8       71.4      29.35       71.4        530        223       1474      -0.41       0.00       0.60      0.000
3:59am            183          0          1         44         98       72.8       71.4      29.35       71.4        530        148       1474      -0.41       0.00       0.60      0.000
4:00am            183          0          1         44         98       72.8       71.4      29.35       71.4        530        148       1474      -0.40       0.00       0.60      0.000
4:01am            183          0          0         44         98       72.8       71.4      29.35       71.4        528        148       1472      -0.40       0.00       0.60      0.000
4:02am            183          0          1         44         98       72.8       71.5      29.35       71.5        527        148       1477      -0.29       0.00       0.60      0.000

Data provided from:  Mark Hofmann's Bel Air, MD Weather Station